Hourly Data Report for October 08, 2015

All times are specified in Local Standard Time (LST). Add 1 hour to adjust for Daylight Saving Time where and when it is observed.

ST LEONARD CS
NEW BRUNSWICK

47°09'28.050" N
67°49'55.014" W
245.00 m
810I001
71019
WIY

Download Data

Hourly Data (October 2015)
Hourly Data Report for October 8, 2015
Temp Definition
°C
Dew Point Temp Definition
°C
Rel Hum Definition
%
Wind Dir Definition
10's deg

Wind Spd Definition
km/h
Visibility Definition
km
Stn Press Definition
kPa
Hmdx Definition


Wind Chill Definition


Weather Definition


TIME
00:00 5.5 2.0 78 29 11   98.27     LegendNANA
01:00 4.0 0.6 79 30 12   98.31     LegendNANA
02:00 3.2 0.4 82 27 9   98.37     LegendNANA
03:00 2.8 0.6 86 28 9   98.40     LegendNANA
04:00 2.4 0.4 87 30 10   98.44     LegendNANA
05:00 2.8 0.7 86 29 11   98.52     LegendNANA
06:00 2.6 0.5 86 29 12   98.60     LegendNANA
07:00 2.4 0.2 86 29 13   98.65     LegendNANA
08:00 3.7 0.3 79 30 12   98.71     LegendNANA
09:00 5.3 0.3 70 30 22   98.76     LegendNANA
10:00 6.2 -0.3 63 32 29   98.78     LegendNANA
11:00 6.6 -0.2 62 33 20   98.82     LegendNANA
12:00 7.0 -1.6 54 31 20   98.81     LegendNANA
13:00 7.7 -1.2 53 32 20   98.82     LegendNANA
14:00 7.9 -2.3 48 30 20   98.76     LegendNANA
15:00 7.5 -1.7 52 31 18   98.78     LegendNANA
16:00 7.1 -1.2 56 30 14   98.82     LegendNANA
17:00 6.4 -1.7 56 31 14   98.88     LegendNANA
18:00 5.5 -1.8 59 31 16   98.93     LegendNANA
19:00 4.5 -1.6 64 31 11   98.95     LegendNANA
20:00 3.5 -0.9 73 30 4   98.98     LegendNANA
21:00 3.3 -1.0 74 29 8   98.98     LegendNANA
22:00 2.9 -1.3 74 29 7   99.03     LegendNANA
23:00 1.3 -1.0 85 29 5   98.99     LegendNANA

Notes on Data Quality.

Legend

  • E = Estimated
  • M = Missing
  • NA = Not Available
  • ‡ = Partner data that is not subject to review by the National Climate Archives
Date modified: